Regional Weather Roundup
Issued by NWS

Home | Current Version | Previous Version | Graphics & Text | Print | Product List | Glossary On
Versions: 1 2 3 4 5 6 7 8 9 10 11 12 13 14 15 16 17 18 19 20 21 22 23 24 25 26 27 28
000
ASUS45 KCYS 241610
RWRWY

WYOMING REGIONAL WEATHER ROUNDUP
NATIONAL WEATHER SERVICE CHEYENNE WY
900 AM MST FRI NOV 24 2017

NOTE:  "FAIR" INDICATES FEW OR NO CLOUDS BELOW 12,000 FEET
WITH NO SIGNIFICANT WEATHER AND/OR OBSTRUCTIONS TO VISIBILITY.

WYZ001-241700-
YELLOWSTONE NATIONAL PARK

CITY           SKY/WX    TMP DP  RH WIND       PRES   REMARKS
LK YELLOWSTONE   N/A     31  28  89 VRB6      29.99R WCI  25
W YELLOWSTONE  NOT AVBL

$$
WYZ002>013-054>058-071-098>099-241700-
NORTHERN WYOMING

CITY           SKY/WX    TMP DP  RH WIND       PRES   REMARKS
JACKSON        LGT RAIN  39  36  89 SW8       29.95S WCI  33
CODY           FAIR      41  35  79 CALM      29.90R
GREYBULL       PTSUNNY   50  31  48 N13       29.84R
WORLAND        FAIR      46  34  62 CALM      29.86R
SHERIDAN       FAIR      46  39  76 N12       29.88R
BUFFALO        FAIR      44  36  73 N23G31    29.86R
GILLETTE       FAIR      45  36  70 NW15G25   29.86R
HULETT         FAIR      43  32  65 NW12G17   29.83R
NEWCASTLE      FAIR      41  36  81 N9        29.82F

$$
WYZ014>020-022>026-101>103-241700-
CENTRAL WYOMING

CITY           SKY/WX    TMP DP  RH WIND       PRES   REMARKS
BIG PINEY      FAIR      45  30  55 NW8       29.97R
PINEDALE       CLOUDY    37  32  81 SE3       29.99S
DUBOIS         LGT RAIN  34  32  93 NW6       29.93R WCI  29
LANDER         FAIR      55  27  34 N25G40    29.84R
RIVERTON       PTSUNNY   49  32  52 N6        29.88R
CASPER         FAIR      42  33  70 NE8       29.89R
DOUGLAS        CLOUDY    49  38  65 N22G30    29.87R

$$
WYZ021-027>030-104>119-241700-
SOUTHERN WYOMING

CITY           SKY/WX    TMP DP  RH WIND       PRES   REMARKS
EVANSTON       FAIR      47  33  58 SW10      30.05R
KEMMERER       FAIR      39  32  75 W5        30.04R
FORT BRIDGER   FAIR      47  33  58 SW14      30.07R
ROCK SPRINGS   FAIR      42  31  64 S8        30.02R
DIXON          FAIR      44  31  60 NW8       30.04R
RAWLINS        FAIR      47  31  53 W21G30    29.97R
SARATOGA       PTSUNNY   45  30  57 W8        29.99R
LARAMIE        FAIR      49  28  44 W18       29.94R
CHEYENNE       FAIR      57  28  33 W24G41    29.86R
TORRINGTON     FAIR      55  36  48 N20G31    29.81R
PINE BLUFFS    FAIR      54  28  37 W10       29.85R

$$




USA.gov is the U.S. government's official web portal to all federal, state and local government web resources and services.